• In Netherlands
  • List of Countries
  • For 7 days
  • Water Temperature
  • Satellite Maps
  • Weather Map
  • Weather Widgets
  • user-avatar
    Login

    Hourly Weather Jaú

    Today, 24 June, Saturday

    Time Temperature Precipitation Wind Pressure Humidity
    00:00 +37°C° 0 mm 8 mps 750 mmHg 38%
    01:00 +37°C° 0 mm 8 mps 750 mmHg 39%
    02:00 +37°C° 0 mm 8 mps 750 mmHg 41%
    03:00 +35°C° 0 mm 8 mps 749 mmHg 45%
    04:00 +35°C° 0 mm 8 mps 749 mmHg 44%
    05:00 +35°C° 0 mm 8 mps 750 mmHg 44%
    06:00 +37°C° 0 mm 8 mps 750 mmHg 44%
    07:00 +38°C° 0 mm 8 mps 750 mmHg 38%
    08:00 +39°C° 0 mm 9 mps 750 mmHg 32%
    09:00 +42°C° 0 mm 9 mps 750 mmHg 26%
    10:00 +42°C° 0 mm 9 mps 750 mmHg 24%
    11:00 +43°C° 0 mm 9 mps 750 mmHg 22%
    12:00 +44°C° 0 mm 9 mps 750 mmHg 20%
    13:00 +44°C° 0 mm 9 mps 750 mmHg 20%
    14:00 +43°C° 0 mm 9 mps 749 mmHg 20%
    15:00 +43°C° 0 mm 9 mps 749 mmHg 20%
    16:00 +41°C° 0 mm 8 mps 749 mmHg 21%
    17:00 +41°C° 0 mm 7 mps 749 mmHg 23%
    18:00 +40°C° 0 mm 7 mps 749 mmHg 24%
    19:00 +39°C° 0 mm 6 mps 749 mmHg 28%
    20:00 +37°C° 0 mm 5 mps 749 mmHg 32%
    21:00 +36°C° 0 mm 4 mps 749 mmHg 37%
    22:00 +36°C° 0 mm 3 mps 749 mmHg 37%
    23:00 +35°C° 0 mm 3 mps 749 mmHg 38%

    Tomorrow, 25 June, Sunday

    Time Temperature Precipitation Wind Pressure Humidity
    00:00 +35°C° 0 mm 3 mps 749 mmHg 39%
    01:00 +35°C° 0 mm 3 mps 749 mmHg 40%
    02:00 +35°C° 0 mm 4 mps 748 mmHg 42%
    03:00 +35°C° 0 mm 5 mps 748 mmHg 43%
    04:00 +35°C° 0 mm 5 mps 748 mmHg 44%
    05:00 +35°C° 0 mm 6 mps 749 mmHg 44%
    06:00 +36°C° 0 mm 6 mps 749 mmHg 45%
    07:00 +38°C° 0 mm 7 mps 749 mmHg 39%
    08:00 +40°C° 0 mm 8 mps 749 mmHg 33%
    09:00 +43°C° 0 mm 8 mps 749 mmHg 28%
    10:00 +44°C° 0 mm 8 mps 749 mmHg 25%
    11:00 +44°C° 0 mm 8 mps 749 mmHg 23%
    12:00 +45°C° 0 mm 8 mps 749 mmHg 21%
    13:00 +45°C° 0 mm 8 mps 749 mmHg 22%
    14:00 +44°C° 0 mm 8 mps 748 mmHg 22%
    15:00 +44°C° 0 mm 8 mps 748 mmHg 23%
    16:00 +43°C° 0 mm 8 mps 748 mmHg 24%
    17:00 +41°C° 0 mm 7 mps 748 mmHg 26%
    18:00 +40°C° 0 mm 7 mps 748 mmHg 28%
    19:00 +39°C° 0 mm 6 mps 748 mmHg 31%
    20:00 +37°C° 0 mm 5 mps 748 mmHg 34%
    21:00 +36°C° 0 mm 4 mps 749 mmHg 37%
    22:00 +36°C° 0 mm 3 mps 749 mmHg 36%
    23:00 +36°C° 0 mm 3 mps 748 mmHg 36%

    Day after tomorrow, 26 June, Monday

    Time Temperature Precipitation Wind Pressure Humidity
    00:00 +35°C° 0 mm 2 mps 748 mmHg 35%
    01:00 +35°C° 0 mm 3 mps 748 mmHg 33%
    02:00 +35°C° 0 mm 3 mps 748 mmHg 31%
    03:00 +35°C° 0 mm 4 mps 748 mmHg 29%
    04:00 +36°C° 0 mm 4 mps 748 mmHg 28%
    05:00 +36°C° 0 mm 5 mps 749 mmHg 27%
    06:00 +36°C° 0 mm 5 mps 749 mmHg 26%
    07:00 +39°C° 0 mm 6 mps 749 mmHg 24%
    08:00 +41°C° 0 mm 6 mps 749 mmHg 22%
    09:00 +44°C° 0 mm 7 mps 750 mmHg 20%
    10:00 +45°C° 0 mm 7 mps 750 mmHg 19%
    11:00 +46°C° 0 mm 7 mps 750 mmHg 18%
    12:00 +47°C° 0 mm 7 mps 749 mmHg 17%
    13:00 +47°C° 0 mm 7 mps 749 mmHg 17%
    14:00 +46°C° 0 mm 7 mps 749 mmHg 18%
    15:00 +46°C° 0 mm 7 mps 748 mmHg 19%
    16:00 +45°C° 0 mm 6 mps 748 mmHg 22%
    17:00 +42°C° 0 mm 6 mps 748 mmHg 25%
    18:00 +41°C° 0 mm 5 mps 749 mmHg 29%
    19:00 +40°C° 0 mm 5 mps 749 mmHg 31%
    20:00 +38°C° 0 mm 4 mps 749 mmHg 33%
    21:00 +37°C° 0 mm 3 mps 750 mmHg 35%
    22:00 +37°C° 0 mm 3 mps 749 mmHg 33%
    23:00 +37°C° 0 mm 3 mps 749 mmHg 31%

    27 June, Tuesday

    Time Temperature Precipitation Wind Pressure Humidity
    00:00 +37°C° 0 mm 4 mps 749 mmHg 29%
    01:00 +37°C° 0 mm 4 mps 748 mmHg 28%
    02:00 +37°C° 0 mm 5 mps 748 mmHg 27%
    03:00 +38°C° 0 mm 6 mps 748 mmHg 26%
    04:00 +39°C° 0 mm 6 mps 748 mmHg 25%
    05:00 +39°C° 0 mm 6 mps 749 mmHg 25%
    06:00 +39°C° 0 mm 7 mps 749 mmHg 24%
    07:00 +41°C° 0 mm 7 mps 749 mmHg 21%
    08:00 +44°C° 0 mm 7 mps 749 mmHg 17%
    09:00 +46°C° 0 mm 7 mps 750 mmHg 13%
    10:00 +47°C° 0 mm 7 mps 749 mmHg 12%
    11:00 +48°C° 0 mm 6 mps 749 mmHg 11%
    12:00 +49°C° 0 mm 6 mps 749 mmHg 10%
    13:00 +49°C° 0 mm 6 mps 748 mmHg 11%
    14:00 +49°C° 0 mm 6 mps 748 mmHg 12%
    15:00 +48°C° 0 mm 6 mps 747 mmHg 12%
    16:00 +47°C° 0 mm 5 mps 747 mmHg 15%
    17:00 +46°C° 0 mm 5 mps 747 mmHg 18%
    18:00 +43°C° 0 mm 4 mps 747 mmHg 21%
    19:00 +42°C° 0 mm 4 mps 748 mmHg 24%
    20:00 +40°C° 0 mm 3 mps 748 mmHg 26%
    21:00 +39°C° 0 mm 2 mps 748 mmHg 29%
    22:00 +39°C° 0 mm 3 mps 748 mmHg 28%
    23:00 +39°C° 0 mm 3 mps 747 mmHg 26%

    28 June, Wednesday

    Time Temperature Precipitation Wind Pressure Humidity
    00:00 +40°C° 0 mm 4 mps 747 mmHg 24%
    01:00 +38°C° 0 mm 4 mps 747 mmHg 25%
    02:00 +39°C° 0 mm 5 mps 747 mmHg 25%
    03:00 +39°C° 0 mm 5 mps 746 mmHg 26%
    04:00 +38°C° 0 mm 4 mps 747 mmHg 25%
    05:00 +38°C° 0 mm 4 mps 747 mmHg 24%
    06:00 +38°C° 0 mm 3 mps 747 mmHg 23%
    07:00 +40°C° 0 mm 3 mps 748 mmHg 19%
    08:00 +43°C° 0 mm 3 mps 748 mmHg 15%
    09:00 +45°C° 0 mm 3 mps 748 mmHg 12%
    10:00 +46°C° 0 mm 3 mps 748 mmHg 12%
    11:00 +48°C° 0 mm 4 mps 747 mmHg 12%
    12:00 +49°C° 0 mm 4 mps 747 mmHg 12%
    13:00 +48°C° 0 mm 4 mps 747 mmHg 13%
    14:00 +48°C° 0 mm 4 mps 746 mmHg 15%
    15:00 +47°C° 0 mm 4 mps 746 mmHg 16%
    16:00 +45°C° 0 mm 3 mps 745 mmHg 17%
    17:00 +45°C° 0 mm 3 mps 745 mmHg 18%
    18:00 +43°C° 0 mm 2 mps 745 mmHg 19%
    19:00 +41°C° 0 mm 2 mps 746 mmHg 20%
    20:00 +40°C° 0 mm 1 mps 746 mmHg 21%
    21:00 +37°C° 0 mm 1 mps 746 mmHg 22%
    22:00 +38°C° 0 mm 2 mps 746 mmHg 24%
    23:00 +38°C° 0 mm 3 mps 746 mmHg 27%

    29 June, Thursday

    Time Temperature Precipitation Wind Pressure Humidity
    00:00 +38°C° 0 mm 4 mps 746 mmHg 29%
    01:00 +37°C° 0 mm 3 mps 746 mmHg 32%
    02:00 +36°C° 0 mm 2 mps 745 mmHg 35%
    03:00 +34°C° 0 mm 1 mps 745 mmHg 37%
    04:00 +35°C° 0 mm 1 mps 746 mmHg 36%
    05:00 +35°C° 0 mm 1 mps 746 mmHg 34%
    06:00 +33°C° 0 mm 0 mps 746 mmHg 33%
    07:00 +37°C° 0 mm 1 mps 747 mmHg 29%
    08:00 +40°C° 0 mm 1 mps 747 mmHg 25%
    09:00 +42°C° 0 mm 2 mps 747 mmHg 20%
    10:00 +43°C° 0 mm 2 mps 747 mmHg 19%
    11:00 +45°C° 0 mm 2 mps 747 mmHg 18%
    12:00 +46°C° 0 mm 3 mps 746 mmHg 16%
    13:00 +46°C° 0 mm 3 mps 746 mmHg 17%
    14:00 +47°C° 0 mm 4 mps 746 mmHg 18%
    15:00 +47°C° 0 mm 4 mps 745 mmHg 18%
    16:00 +45°C° 0 mm 4 mps 745 mmHg 21%
    17:00 +44°C° 0 mm 3 mps 745 mmHg 24%
    18:00 +43°C° 0 mm 3 mps 745 mmHg 26%
    19:00 +42°C° 0 mm 3 mps 745 mmHg 28%
    20:00 +39°C° 0 mm 3 mps 746 mmHg 31%
    21:00 +38°C° 0 mm 3 mps 746 mmHg 33%
    22:00 +38°C° 0 mm 3 mps 746 mmHg 36%
    23:00 +37°C° 0 mm 3 mps 745 mmHg 38%
    Show more